Station Historical Data
Daily Summary for June 11, 2012 Units:  Metric    English   Both
« Previous Day
Next Day »
Daily Weekly Monthly Yearly Custom
  High: Low: Average:
Temperature: 28.8 °C 19.2 °C 22.9 °C
Dew Point: 23.9 °C 18.1 °C 20.8 °C
Humidity: 93% 71% 88%
Wind Speed: 22.5km/h 0km/h 6.9km/h
Wind Gust: 61.2km/h - -
Wind- - SSW
Pressure: 1015.1 hPa 1010 hPa -
Precipitation: 3.56 mm    
Historical Graphs
 
 
Tabular Data for June 11, 2012
Time Temperature Dew Point Pressure Wind Wind Speed Wind Gust Humidity Rainfall Rate (Hourly) Conditions
00:00 21.3 °C 20.1 °C 1012.4 hPa SE 4.8 km/h 8 km/h 93% 1.02 mm
00:06 21.3 °C 20.1 °C 1012.4 hPa ESE 6.4 km/h 6.4 km/h 93% 0 mm
00:11 21.2 °C 20.1 °C 1012.4 hPa SE 4.8 km/h 4.8 km/h 93% 0 mm
00:16 21.2 °C 20.1 °C 1012.4 hPa SE 1.6 km/h 4.8 km/h 93% 0 mm
00:21 21.2 °C 20.1 °C 1012.4 hPa SE 3.2 km/h 4.8 km/h 93% 0 mm
00:26 21.2 °C 20.1 °C 1012.4 hPa SE 6.4 km/h 6.4 km/h 93% 0 mm
00:31 21.2 °C 20.1 °C 1012.4 hPa SE 3.2 km/h 6.4 km/h 93% 0 mm
00:36 21.2 °C 20 °C 1012.4 hPa ESE 3.2 km/h 8 km/h 93% 0 mm
00:41 21.2 °C 20 °C 1012.4 hPa SE 4.8 km/h 9.7 km/h 93% 0 mm
00:46 21.2 °C 20 °C 1012.8 hPa ESE 4.8 km/h 6.4 km/h 93% 0 mm
00:51 21.2 °C 20 °C 1012.8 hPa SE 4.8 km/h 9.7 km/h 93% 0 mm
00:56 21.1 °C 19.9 °C 1012.8 hPa SSE 6.4 km/h 8 km/h 93% 0 mm
01:01 21.1 °C 19.9 °C 1012.8 hPa SE 6.4 km/h 8 km/h 93% 0 mm
01:06 21.1 °C 19.9 °C 1012.8 hPa SE 8 km/h 11.3 km/h 93% 0 mm
01:11 21.1 °C 19.9 °C 1012.8 hPa SSE 9.7 km/h 9.7 km/h 93% 0 mm
01:16 21.1 °C 19.9 °C 1012.8 hPa SSE 9.7 km/h 12.9 km/h 93% 0 mm
01:21 21.1 °C 19.9 °C 1012.8 hPa SSE 8 km/h 9.7 km/h 93% 0 mm
01:26 21.1 °C 19.9 °C 1012.8 hPa South 8 km/h 9.7 km/h 93% 0 mm
01:31 21.1 °C 19.9 °C 1012.8 hPa SSW 4.8 km/h 11.3 km/h 93% 0 mm
01:36 21.1 °C 19.9 °C 1012.8 hPa South 8 km/h 9.7 km/h 93% 0 mm
01:41 21.1 °C 19.9 °C 1012.8 hPa SSE 8 km/h 9.7 km/h 93% 0 mm
01:46 21 °C 19.8 °C 1012.8 hPa SSE 8 km/h 14.5 km/h 93% 0 mm
01:51 21 °C 19.8 °C 1012.8 hPa SSE 6.4 km/h 12.9 km/h 93% 0 mm
01:56 20.9 °C 19.8 °C 1012.8 hPa SSE 4.8 km/h 14.5 km/h 93% 0 mm
02:01 20.9 °C 19.8 °C 1012.4 hPa SSE 8 km/h 14.5 km/h 93% 0 mm
02:06 20.9 °C 19.8 °C 1012.8 hPa South 4.8 km/h 11.3 km/h 93% 0 mm
02:11 20.9 °C 19.8 °C 1012.8 hPa SSE 3.2 km/h 8 km/h 93% 0 mm
02:16 20.9 °C 19.8 °C 1012.8 hPa SSE 8 km/h 11.3 km/h 93% 0 mm
02:21 20.9 °C 19.8 °C 1012.8 hPa SSW 6.4 km/h 11.3 km/h 93% 0 mm
02:26 20.9 °C 19.8 °C 1012.4 hPa South 3.2 km/h 8 km/h 93% 0 mm
02:31 20.9 °C 19.8 °C 1012.4 hPa SSE 4.8 km/h 8 km/h 93% 0 mm
02:36 20.9 °C 19.8 °C 1012.4 hPa SSW 3.2 km/h 9.7 km/h 93% 0 mm
02:41 20.9 °C 19.8 °C 1012.4 hPa SW 3.2 km/h 4.8 km/h 93% 0 mm
02:46 20.9 °C 19.8 °C 1012.4 hPa SSE 3.2 km/h 4.8 km/h 93% 0 mm
02:51 20.9 °C 19.8 °C 1012.4 hPa South 9.7 km/h 9.7 km/h 93% 0 mm
02:56 20.9 °C 19.7 °C 1012.4 hPa SSE 4.8 km/h 11.3 km/h 93% 0 mm
03:01 20.9 °C 19.7 °C 1012.4 hPa SSE 4.8 km/h 4.8 km/h 93% 0 mm
03:06 20.9 °C 19.7 °C 1012.1 hPa SSE 4.8 km/h 9.7 km/h 93% 0 mm
03:11 20.9 °C 19.7 °C 1012.1 hPa SSW 3.2 km/h 6.4 km/h 93% 0 mm
03:16 20.8 °C 19.7 °C 1012.4 hPa South 6.4 km/h 8 km/h 93% 0 mm
03:21 20.9 °C 19.7 °C 1012.4 hPa SSE 6.4 km/h 9.7 km/h 93% 0 mm
03:26 20.9 °C 19.7 °C 1012.1 hPa SE 3.2 km/h 6.4 km/h 93% 0 mm
03:31 20.9 °C 19.7 °C 1012.1 hPa SSE 6.4 km/h 11.3 km/h 93% 0 mm
03:36 20.9 °C 19.7 °C 1012.1 hPa South 8 km/h 12.9 km/h 93% 0 mm
03:41 20.9 °C 19.7 °C 1012.1 hPa SSE 6.4 km/h 8 km/h 93% 0 mm
03:46 20.9 °C 19.8 °C 1012.4 hPa SSW 4.8 km/h 12.9 km/h 93% 0 mm
03:51 20.9 °C 19.7 °C 1012.4 hPa SSE 6.4 km/h 9.7 km/h 93% 0 mm
03:56 20.9 °C 19.8 °C 1012.4 hPa South 3.2 km/h 8 km/h 93% 0 mm
04:01 20.9 °C 19.8 °C 1012.4 hPa South 6.4 km/h 8 km/h 93% 0 mm
04:06 20.9 °C 19.8 °C 1012.4 hPa SSW 6.4 km/h 11.3 km/h 93% 0 mm
04:11 20.9 °C 19.8 °C 1012.4 hPa SSW 1.6 km/h 6.4 km/h 93% 0 mm
04:16 20.9 °C 19.8 °C 1012.4 hPa SE 3.2 km/h 4.8 km/h 93% 0 mm
04:21 20.9 °C 19.8 °C 1012.4 hPa SSE 6.4 km/h 9.7 km/h 93% 0 mm
04:26 20.9 °C 19.8 °C 1012.4 hPa SSW 4.8 km/h 9.7 km/h 93% 0 mm
04:31 21 °C 19.8 °C 1012.4 hPa SSE 3.2 km/h 12.9 km/h 93% 0 mm
04:36 21 °C 19.8 °C 1012.4 hPa SSW 4.8 km/h 6.4 km/h 93% 0 mm
04:41 21 °C 19.8 °C 1012.4 hPa SSE 3.2 km/h 8 km/h 93% 0 mm
04:46 21 °C 19.8 °C 1012.4 hPa SSW 4.8 km/h 6.4 km/h 93% 0 mm
04:51 21 °C 19.8 °C 1012.4 hPa SW 4.8 km/h 8 km/h 93% 0 mm
04:57 21 °C 19.8 °C 1012.4 hPa SW 4.8 km/h 8 km/h 93% 0 mm
05:02 21.1 °C 19.9 °C 1012.4 hPa SSE 3.2 km/h 8 km/h 93% 0 mm
05:07 21 °C 19.8 °C 1012.4 hPa SSW 1.6 km/h 4.8 km/h 93% 0 mm
05:12 21.1 °C 19.9 °C 1012.4 hPa South 3.2 km/h 4.8 km/h 93% 4.32 mm
05:17 21 °C 19.8 °C 1012.8 hPa SSW 3.2 km/h 9.7 km/h 93% 1.78 mm
05:22 21.1 °C 19.9 °C 1012.4 hPa SE 3.2 km/h 6.4 km/h 93% 1.27 mm
05:27 21.1 °C 19.9 °C 1012.8 hPa SSE 4.8 km/h 9.7 km/h 93% 0 mm
05:32 21.1 °C 19.9 °C 1012.8 hPa South 3.2 km/h 6.4 km/h 93% 4.57 mm
05:37 21.1 °C 19.9 °C 1012.8 hPa South 6.4 km/h 8 km/h 93% 3.56 mm
05:42 21.1 °C 19.9 °C 1012.8 hPa SW 8 km/h 11.3 km/h 93% 1.78 mm
05:47 21.1 °C 19.9 °C 1012.8 hPa WSW 9.7 km/h 11.3 km/h 93% 1.02 mm
05:52 21.1 °C 19.9 °C 1012.8 hPa SW 11.3 km/h 11.3 km/h 93% 0 mm
05:57 21.1 °C 19.9 °C 1012.8 hPa SW 9.7 km/h 9.7 km/h 93% 0 mm
06:02 21.1 °C 19.9 °C 1012.8 hPa SSE 6.4 km/h 8 km/h 93% 0 mm
06:07 21.1 °C 19.9 °C 1012.8 hPa SSW 6.4 km/h 11.3 km/h 93% 0 mm
06:12 21.1 °C 19.9 °C 1013.1 hPa SSW 6.4 km/h 8 km/h 93% 0 mm
06:17 21.1 °C 19.9 °C 1013.1 hPa WSW 11.3 km/h 11.3 km/h 93% 0 mm
06:22 21.1 °C 19.9 °C 1013.1 hPa SW 6.4 km/h 6.4 km/h 93% 0 mm
06:27 21.1 °C 19.9 °C 1013.1 hPa SW 6.4 km/h 9.7 km/h 93% 0 mm
06:32 21.1 °C 19.9 °C 1013.1 hPa SSW 4.8 km/h 8 km/h 93% 0 mm
06:37 21.1 °C 19.9 °C 1013.1 hPa SW 3.2 km/h 8 km/h 93% 0 mm
06:42 21.2 °C 20 °C 1013.1 hPa SW 9.7 km/h 9.7 km/h 93% 0 mm
06:47 21.2 °C 20 °C 1013.1 hPa SW 1.6 km/h 6.4 km/h 93% 0 mm
06:52 21.2 °C 20 °C 1013.1 hPa SSW 6.4 km/h 11.3 km/h 93% 0 mm
06:57 21.2 °C 20 °C 1013.4 hPa SSW 4.8 km/h 8 km/h 93% 0 mm
07:02 21.2 °C 20 °C 1013.1 hPa SW 3.2 km/h 6.4 km/h 93% 0 mm
07:07 21.2 °C 20 °C 1013.4 hPa SSW 3.2 km/h 8 km/h 93% 0 mm
07:12 21.2 °C 20.1 °C 1013.4 hPa SW 4.8 km/h 9.7 km/h 93% 0 mm
07:17 21.2 °C 20.1 °C 1013.4 hPa South 4.8 km/h 11.3 km/h 93% 0 mm
07:22 21.2 °C 20.1 °C 1013.4 hPa SSW 4.8 km/h 11.3 km/h 93% 0 mm
07:27 21.3 °C 20.1 °C 1013.4 hPa SSW 6.4 km/h 8 km/h 93% 0 mm
07:32 21.3 °C 20.1 °C 1013.8 hPa SW 3.2 km/h 11.3 km/h 93% 0 mm
07:37 21.3 °C 20.1 °C 1013.8 hPa SW 8 km/h 12.9 km/h 93% 0 mm
07:42 21.3 °C 20.1 °C 1013.8 hPa SW 4.8 km/h 9.7 km/h 93% 0 mm
07:47 21.3 °C 20.2 °C 1013.8 hPa SW 4.8 km/h 8 km/h 93% 0 mm
07:52 21.3 °C 20.2 °C 1013.8 hPa SW 4.8 km/h 6.4 km/h 93% 0 mm
07:57 21.3 °C 20 °C 1013.8 hPa WSW 6.4 km/h 9.7 km/h 92% 0 mm
08:02 21.4 °C 20.2 °C 1013.8 hPa SW 12.9 km/h 12.9 km/h 93% 0 mm
08:07 21.4 °C 20.2 °C 1013.8 hPa West 6.4 km/h 9.7 km/h 93% 0 mm
08:12 21.4 °C 20.3 °C 1013.8 hPa SSW 4.8 km/h 8 km/h 93% 0 mm
08:17 21.4 °C 20.3 °C 1013.8 hPa WSW 4.8 km/h 11.3 km/h 93% 0 mm
08:22 21.4 °C 20.3 °C 1013.8 hPa SSW 4.8 km/h 8 km/h 93% 0 mm
08:27 21.4 °C 20.3 °C 1013.8 hPa SW 6.4 km/h 9.7 km/h 93% 0 mm
08:32 21.4 °C 20.3 °C 1013.8 hPa SW 6.4 km/h 11.3 km/h 93% 0 mm
08:37 21.4 °C 20.3 °C 1014.1 hPa SW 9.7 km/h 11.3 km/h 93% 0 mm
08:42 21.5 °C 20.2 °C 1014.1 hPa SW 8 km/h 9.7 km/h 92% 0 mm
08:47 21.5 °C 20.3 °C 1013.8 hPa SW 8 km/h 12.9 km/h 93% 0 mm
08:52 21.5 °C 20.2 °C 1014.1 hPa SW 3.2 km/h 9.7 km/h 92% 0 mm
08:58 21.6 °C 20.2 °C 1014.1 hPa SW 6.4 km/h 11.3 km/h 92% 0 mm
09:03 21.7 °C 20.3 °C 1014.1 hPa SW 3.2 km/h 8 km/h 92% 0 mm
09:08 21.7 °C 20.4 °C 1014.1 hPa SW 8 km/h 9.7 km/h 92% 0 mm
09:13 21.7 °C 20.4 °C 1014.1 hPa SW 9.7 km/h 9.7 km/h 92% 0 mm
09:18 21.8 °C 20.4 °C 1014.1 hPa SW 8 km/h 8 km/h 92% 0 mm
09:23 21.8 °C 20.4 °C 1014.1 hPa WSW 4.8 km/h 9.7 km/h 92% 0 mm
09:28 21.8 °C 20.4 °C 1014.1 hPa SSW 3.2 km/h 8 km/h 92% 0 mm
09:33 21.8 °C 20.5 °C 1014.1 hPa SSW 6.4 km/h 9.7 km/h 92% 0 mm
09:38 21.9 °C 20.6 °C 1014.1 hPa SW 8 km/h 9.7 km/h 92% 0 mm
09:43 21.9 °C 20.6 °C 1014.4 hPa SW 4.8 km/h 8 km/h 92% 0 mm
09:48 21.9 °C 20.8 °C 1014.1 hPa WSW 6.4 km/h 11.3 km/h 93% 0 mm
09:53 22 °C 20.8 °C 1014.1 hPa SW 6.4 km/h 9.7 km/h 93% 0 mm
09:58 22.1 °C 20.9 °C 1014.1 hPa WSW 11.3 km/h 11.3 km/h 93% 0 mm
10:03 22.1 °C 20.7 °C 1014.1 hPa WSW 3.2 km/h 9.7 km/h 92% 0 mm
10:08 22.1 °C 20.9 °C 1014.4 hPa SW 6.4 km/h 9.7 km/h 93% 0 mm
10:13 22.2 °C 20.8 °C 1014.1 hPa SW 4.8 km/h 11.3 km/h 92% 0 mm
10:18 22.2 °C 21 °C 1014.4 hPa SW 8 km/h 12.9 km/h 93% 0 mm
10:23 22.2 °C 20.9 °C 1014.4 hPa WSW 6.4 km/h 14.5 km/h 92% 0 mm
10:28 22.3 °C 20.9 °C 1014.4 hPa SW 1.6 km/h 11.3 km/h 92% 0 mm
10:33 22.3 °C 21 °C 1014.8 hPa SW 9.7 km/h 9.7 km/h 92% 0 mm
10:38 22.4 °C 21.1 °C 1014.4 hPa SW 4.8 km/h 8 km/h 92% 0 mm
10:43 22.7 °C 21.3 °C 1014.4 hPa SW 4.8 km/h 8 km/h 92% 0 mm
10:48 23.1 °C 21.7 °C 1014.4 hPa SW 4.8 km/h 11.3 km/h 92% 0 mm
10:53 23.3 °C 21.9 °C 1014.4 hPa WSW 3.2 km/h 9.7 km/h 92% 0 mm
10:58 23.6 °C 22.2 °C 1014.4 hPa SW 4.8 km/h 9.7 km/h 92% 0 mm
11:03 24 °C 22.6 °C 1014.4 hPa South 6.4 km/h 11.3 km/h 92% 0 mm
11:08 24.3 °C 22.7 °C 1014.4 hPa WSW 6.4 km/h 11.3 km/h 91% 0 mm
11:13 24.3 °C 22.8 °C 1014.4 hPa SW 11.3 km/h 11.3 km/h 91% 0 mm
11:18 24.3 °C 22.6 °C 1014.4 hPa SW 4.8 km/h 12.9 km/h 90% 0 mm
11:23 24.3 °C 22.6 °C 1014.4 hPa SW 8 km/h 11.3 km/h 90% 0 mm
11:28 24.3 °C 22.6 °C 1014.4 hPa SW 6.4 km/h 11.3 km/h 90% 0 mm
11:33 24.4 °C 22.4 °C 1014.4 hPa WSW 6.4 km/h 9.7 km/h 89% 0 mm
11:38 24.5 °C 22.4 °C 1014.4 hPa SW 8 km/h 12.9 km/h 88% 0 mm
11:43 24.9 °C 22.8 °C 1014.1 hPa WSW 9.7 km/h 12.9 km/h 88% 0 mm
11:49 25 °C 22.7 °C 1014.4 hPa WSW 8 km/h 11.3 km/h 87% 0 mm
11:54 25.1 °C 22.9 °C 1014.1 hPa SW 14.5 km/h 14.5 km/h 88% 0 mm
11:59 25 °C 22.5 °C 1014.1 hPa South 4.8 km/h 11.3 km/h 86% 0 mm
12:04 25.2 °C 22.7 °C 1014.1 hPa WSW 4.8 km/h 11.3 km/h 86% 0 mm
12:09 25.3 °C 22.8 °C 1014.1 hPa SW 1.6 km/h 8 km/h 86% 0 mm
12:14 25.4 °C 22.9 °C 1014.1 hPa SW 6.4 km/h 9.7 km/h 86% 0 mm
12:19 25.5 °C 23 °C 1014.1 hPa WSW 6.4 km/h 12.9 km/h 86% 0 mm
12:24 25.3 °C 22.4 °C 1014.1 hPa SW 6.4 km/h 14.5 km/h 84% 0 mm
12:29 25.5 °C 22.8 °C 1014.1 hPa WSW 16.1 km/h 16.1 km/h 85% 0 mm
12:34 25.4 °C 22.5 °C 1014.1 hPa SSW 9.7 km/h 14.5 km/h 84% 0 mm
12:39 25.8 °C 22.9 °C 1014.1 hPa SW 4.8 km/h 8 km/h 84% 0 mm
12:44 26.3 °C 23.4 °C 1014.1 hPa SSW 8 km/h 12.9 km/h 84% 0 mm
12:49 26.4 °C 23.1 °C 1014.1 hPa SW 6.4 km/h 11.3 km/h 82% 0 mm
12:54 26.4 °C 22.9 °C 1013.8 hPa SSW 9.7 km/h 14.5 km/h 81% 0 mm
12:59 26.6 °C 22.9 °C 1013.8 hPa SW 12.9 km/h 14.5 km/h 80% 0 mm
13:04 26.4 °C 22.7 °C 1013.8 hPa SW 11.3 km/h 17.7 km/h 80% 0 mm
13:09 26.6 °C 22.8 °C 1013.8 hPa SSE 3.2 km/h 9.7 km/h 80% 0 mm
13:14 26.4 °C 22.7 °C 1013.8 hPa WSW 6.4 km/h 11.3 km/h 80% 0 mm
13:19 26.1 °C 22.7 °C 1013.8 hPa SW 9.7 km/h 17.7 km/h 82% 0 mm
13:24 25.8 °C 22.6 °C 1013.8 hPa SSW 11.3 km/h 16.1 km/h 82% 0 mm
13:29 25.7 °C 22.4 °C 1013.8 hPa South 8 km/h 12.9 km/h 82% 0 mm
13:34 25.8 °C 22.4 °C 1013.8 hPa SW 6.4 km/h 12.9 km/h 82% 0 mm
13:39 25.8 °C 22.6 °C 1013.8 hPa SSE 8 km/h 11.3 km/h 82% 0 mm
13:44 26.1 °C 23.3 °C 1013.8 hPa SSE 8 km/h 11.3 km/h 85% 0 mm
13:49 26.3 °C 23.2 °C 1013.8 hPa SW 8 km/h 8 km/h 83% 0 mm
13:54 26.3 °C 23.4 °C 1013.8 hPa South 6.4 km/h 11.3 km/h 84% 0 mm
13:59 26.4 °C 23.3 °C 1013.8 hPa SW 11.3 km/h 12.9 km/h 83% 0 mm
14:04 26.3 °C 23.2 °C 1013.8 hPa SSW 8 km/h 12.9 km/h 83% 0 mm
14:09 27.1 °C 23.8 °C 1013.8 hPa South 3.2 km/h 9.7 km/h 82% 0 mm
14:14 27.3 °C 23.4 °C 1013.4 hPa SSW 11.3 km/h 16.1 km/h 79% 0 mm
14:19 27.6 °C 23.8 °C 1013.8 hPa SSE 9.7 km/h 14.5 km/h 80% 0 mm
14:24 27.7 °C 23.3 °C 1013.4 hPa SSW 8 km/h 11.3 km/h 77% 0 mm
14:29 27.7 °C 22.8 °C 1013.4 hPa West 4.8 km/h 11.3 km/h 75% 0 mm
14:34 27.6 °C 23.6 °C 1013.4 hPa SSW 6.4 km/h 9.7 km/h 79% 0 mm
14:39 27.8 °C 23.8 °C 1013.4 hPa SW 11.3 km/h 12.9 km/h 79% 0 mm
14:44 27.9 °C 23.5 °C 1013.4 hPa South 11.3 km/h 17.7 km/h 77% 0 mm
14:49 27.7 °C 23.3 °C 1013.4 hPa SSW 8 km/h 11.3 km/h 77% 0 mm
14:54 27.5 °C 23.1 °C 1013.8 hPa South 8 km/h 9.7 km/h 77% 0 mm
14:59 27.2 °C 23.3 °C 1013.8 hPa WSW 9.7 km/h 12.9 km/h 79% 0 mm
15:04 27.1 °C 23.1 °C 1013.8 hPa South 8 km/h 14.5 km/h 79% 0 mm
15:09 27.1 °C 23.6 °C 1013.8 hPa SW 6.4 km/h 11.3 km/h 81% 0 mm
15:14 27.1 °C 23.6 °C 1013.4 hPa SSW 6.4 km/h 8 km/h 81% 0 mm
15:19 27.1 °C 23.6 °C 1013.4 hPa SSW 4.8 km/h 6.4 km/h 81% 0 mm
15:24 27.1 °C 23.4 °C 1013.4 hPa SSW 8 km/h 9.7 km/h 80% 0 mm
15:29 27.1 °C 23.1 °C 1013.4 hPa SW 11.3 km/h 11.3 km/h 79% 0 mm
15:34 27.2 °C 23.3 °C 1013.4 hPa SSW 8 km/h 14.5 km/h 79% 0 mm
15:39 27.2 °C 23.1 °C 1013.4 hPa SSW 4.8 km/h 14.5 km/h 78% 0 mm
15:44 27.4 °C 23.2 °C 1013.4 hPa SW 8 km/h 11.3 km/h 78% 0 mm
15:49 27.9 °C 23.3 °C 1013.1 hPa WSW 11.3 km/h 12.9 km/h 76% 0 mm
15:54 28 °C 23.4 °C 1013.1 hPa SW 9.7 km/h 11.3 km/h 76% 0 mm
15:59 28 °C 22.5 °C 1012.8 hPa SW 14.5 km/h 19.3 km/h 72% 0 mm
16:05 27.9 °C 22.6 °C 1012.8 hPa WSW 9.7 km/h 14.5 km/h 73% 0 mm
16:10 27.9 °C 22.4 °C 1012.8 hPa SW 4.8 km/h 17.7 km/h 72% 0 mm
16:15 28.2 °C 22.7 °C 1012.4 hPa SW 9.7 km/h 16.1 km/h 72% 0 mm
16:20 28.4 °C 23.1 °C 1012.4 hPa SW 3.2 km/h 11.3 km/h 73% 0 mm
16:25 28.6 °C 22.8 °C 1012.4 hPa West 6.4 km/h 9.7 km/h 71% 0 mm
16:30 28.6 °C 22.8 °C 1012.4 hPa WNW 6.4 km/h 11.3 km/h 71% 0 mm
16:35 28.4 °C 22.8 °C 1012.1 hPa SW 8 km/h 20.9 km/h 72% 0 mm
16:40 28.3 °C 23.2 °C 1012.4 hPa WSW 12.9 km/h 12.9 km/h 74% 0 mm
16:45 28.3 °C 23.5 °C 1012.4 hPa SW 11.3 km/h 14.5 km/h 75% 0 mm
16:50 28.2 °C 22.9 °C 1012.4 hPa West 11.3 km/h 17.7 km/h 73% 0 mm
16:55 28.2 °C 23.2 °C 1012.4 hPa WSW 16.1 km/h 16.1 km/h 74% 0 mm
17:00 28.2 °C 23.2 °C 1012.4 hPa WSW 16.1 km/h 19.3 km/h 74% 0 mm
17:05 28.3 °C 23 °C 1012.8 hPa SW 14.5 km/h 14.5 km/h 73% 0 mm
17:10 28.1 °C 23.1 °C 1012.8 hPa WSW 12.9 km/h 17.7 km/h 74% 0 mm
17:15 28.1 °C 23.4 °C 1012.8 hPa SW 8 km/h 12.9 km/h 76% 0 mm
17:20 28 °C 23.2 °C 1012.8 hPa SW 11.3 km/h 14.5 km/h 75% 0 mm
17:25 27.9 °C 23.1 °C 1013.1 hPa SW 8 km/h 16.1 km/h 75% 0 mm
17:30 27.8 °C 23.2 °C 1013.1 hPa WSW 11.3 km/h 14.5 km/h 76% 0 mm
17:35 27.9 °C 23.5 °C 1013.1 hPa SW 9.7 km/h 11.3 km/h 77% 0 mm
17:40 27.8 °C 23.2 °C 1013.4 hPa SW 6.4 km/h 14.5 km/h 76% 0 mm
17:45 28.1 °C 23.8 °C 1013.4 hPa West 4.8 km/h 9.7 km/h 78% 0 mm
17:50 28.4 °C 23.8 °C 1013.1 hPa SW 8 km/h 14.5 km/h 76% 0 mm
17:55 28.8 °C 23.9 °C 1013.1 hPa WSW 4.8 km/h 9.7 km/h 75% 0 mm
18:00 28.8 °C 23.7 °C 1013.1 hPa SSW 9.7 km/h 14.5 km/h 74% 0 mm
18:05 28.4 °C 22.9 °C 1013.1 hPa SW 11.3 km/h 16.1 km/h 72% 0 mm
18:10 28.2 °C 23.4 °C 1013.1 hPa SW 9.7 km/h 12.9 km/h 75% 0 mm
18:15 28.3 °C 23.7 °C 1013.1 hPa SW 8 km/h 9.7 km/h 76% 0 mm
18:20 28.4 °C 23.8 °C 1013.1 hPa SW 12.9 km/h 12.9 km/h 76% 0 mm
18:25 28.4 °C 23.8 °C 1013.1 hPa SW 4.8 km/h 11.3 km/h 76% 0 mm
18:30 28.3 °C 23.7 °C 1013.1 hPa WSW 8 km/h 12.9 km/h 76% 0 mm
18:35 28 °C 23.6 °C 1013.1 hPa SSW 9.7 km/h 12.9 km/h 77% 0 mm
18:40 27.8 °C 23.4 °C 1013.1 hPa SW 9.7 km/h 12.9 km/h 77% 0 mm
18:45 27.7 °C 23.7 °C 1013.1 hPa SW 3.2 km/h 8 km/h 79% 0 mm
18:50 27.6 °C 23.7 °C 1012.8 hPa SW 4.8 km/h 9.7 km/h 79% 0 mm
18:55 27.5 °C 23.7 °C 1013.1 hPa SW 12.9 km/h 12.9 km/h 80% 0 mm
19:00 26.5 °C 21.3 °C 1013.8 hPa NNW 19.3 km/h 61.2 km/h 73% 0 mm
19:05 24.6 °C 20.3 °C 1014.1 hPa NW 22.5 km/h 37 km/h 77% 0 mm
19:10 22.9 °C 19.8 °C 1014.4 hPa WNW 16.1 km/h 40.2 km/h 83% 21.08 mm
19:15 21.5 °C 19.6 °C 1014.4 hPa WNW 16.1 km/h 32.2 km/h 89% 11.18 mm
19:20 20.9 °C 19.4 °C 1015.1 hPa NW 12.9 km/h 32.2 km/h 91% 2.79 mm
19:26 20.7 °C 19.3 °C 1015.1 hPa WNW 17.7 km/h 29 km/h 92% 1.52 mm
19:31 20.6 °C 19.2 °C 1014.8 hPa WNW 12.9 km/h 24.1 km/h 92% 1.02 mm
19:36 20.5 °C 19.2 °C 1014.8 hPa NW 14.5 km/h 20.9 km/h 92% 0 mm
19:40 20.4 °C 19.1 °C 1015.1 hPa WNW 14.5 km/h 22.5 km/h 92% 0 mm
19:46 20.4 °C 19.1 °C 1015.1 hPa WNW 8 km/h 17.7 km/h 92% 0 mm
19:51 20.3 °C 19.2 °C 1015.1 hPa WNW 9.7 km/h 12.9 km/h 93% 0 mm
19:56 20.3 °C 19.2 °C 1014.8 hPa NNW 6.4 km/h 11.3 km/h 93% 0 mm
20:01 20.3 °C 19.2 °C 1014.1 hPa NNW 4.8 km/h 11.3 km/h 93% 0 mm
20:06 20.3 °C 19.2 °C 1013.8 hPa NW 6.4 km/h 11.3 km/h 93% 0 mm
20:11 20.3 °C 19.2 °C 1014.1 hPa WNW 6.4 km/h 6.4 km/h 93% 0 mm
20:16 20.3 °C 19.2 °C 1014.4 hPa West 3.2 km/h 6.4 km/h 93% 0 mm
20:21 20.3 °C 19.2 °C 1014.4 hPa West 8 km/h 8 km/h 93% 0 mm
20:26 20.3 °C 19.1 °C 1014.4 hPa WSW 8 km/h 9.7 km/h 93% 0 mm
20:31 20.3 °C 19.1 °C 1014.1 hPa SW 12.9 km/h 12.9 km/h 93% 0 mm
20:36 20.2 °C 19.1 °C 1014.1 hPa WSW 6.4 km/h 11.3 km/h 93% 0 mm
20:41 20.2 °C 19 °C 1013.4 hPa SSW 4.8 km/h 8 km/h 93% 0 mm
20:46 20.1 °C 18.9 °C 1013.4 hPa WSW 3.2 km/h 6.4 km/h 93% 0 mm
20:51 20.1 °C 18.9 °C 1013.4 hPa SW 4.8 km/h 8 km/h 93% 0 mm
20:56 20 °C 18.8 °C 1013.4 hPa SW 6.4 km/h 6.4 km/h 93% 0 mm
21:01 19.9 °C 18.8 °C 1013.1 hPa WSW 8 km/h 9.7 km/h 93% 0 mm
21:06 19.9 °C 18.8 °C 1013.1 hPa South 3.2 km/h 8 km/h 93% 0 mm
21:11 19.9 °C 18.7 °C 1013.1 hPa SSE 4.8 km/h 8 km/h 93% 0 mm
21:16 19.8 °C 18.7 °C 1012.8 hPa SSE 6.4 km/h 8 km/h 93% 0 mm
21:21 19.8 °C 18.7 °C 1012.4 hPa SE 6.4 km/h 9.7 km/h 93% 0 mm
21:26 19.8 °C 18.7 °C 1012.8 hPa SSE 4.8 km/h 6.4 km/h 93% 0 mm
21:31 19.8 °C 18.7 °C 1012.4 hPa SSE 6.4 km/h 9.7 km/h 93% 0 mm
21:36 19.8 °C 18.7 °C 1012.1 hPa SSE 6.4 km/h 9.7 km/h 93% 0 mm
21:41 19.8 °C 18.7 °C 1012.1 hPa SE 6.4 km/h 9.7 km/h 93% 0 mm
21:46 19.8 °C 18.6 °C 1011.7 hPa SSE 3.2 km/h 6.4 km/h 93% 0 mm
21:51 19.8 °C 18.6 °C 1011.7 hPa SE 4.8 km/h 9.7 km/h 93% 0 mm
21:56 19.7 °C 18.6 °C 1011.4 hPa SE 9.7 km/h 11.3 km/h 93% 0 mm
22:01 19.7 °C 18.5 °C 1011.1 hPa SE 8 km/h 9.7 km/h 93% 0 mm
22:06 19.7 °C 18.5 °C 1010.7 hPa SSE 6.4 km/h 11.3 km/h 93% 0 mm
22:11 19.6 °C 18.4 °C 1010.4 hPa South 9.7 km/h 9.7 km/h 93% 0 mm
22:16 19.6 °C 18.4 °C 1010.4 hPa ESE 6.4 km/h 9.7 km/h 93% 0 mm
22:21 19.6 °C 18.4 °C 1010 hPa SE 9.7 km/h 9.7 km/h 93% 0 mm
22:26 19.6 °C 18.4 °C 1010 hPa SSE 8 km/h 11.3 km/h 93% 0 mm
22:32 19.6 °C 18.4 °C 1010 hPa SE 9.7 km/h 11.3 km/h 93% 0 mm
22:37 19.5 °C 18.3 °C 1010 hPa SE 9.7 km/h 11.3 km/h 93% 0 mm
22:42 19.5 °C 18.3 °C 1010.4 hPa Calm   4.8 km/h 93% 0 mm
22:47 19.4 °C 18.3 °C 1010.4 hPa ESE 3.2 km/h 3.2 km/h 93% 0 mm
22:52 19.4 °C 18.3 °C 1010.7 hPa North 1.6 km/h 1.6 km/h 93% 0 mm
22:57 19.4 °C 18.2 °C 1010.4 hPa Calm   1.6 km/h 93% 0 mm
23:02 19.4 °C 18.2 °C 1010.4 hPa Calm   3.2 km/h 93% 0 mm
23:07 19.4 °C 18.2 °C 1010.7 hPa North 3.2 km/h 4.8 km/h 93% 0 mm
23:12 19.4 °C 18.2 °C 1011.1 hPa NNW 3.2 km/h 8 km/h 93% 0 mm
23:17 19.4 °C 18.2 °C 1010.7 hPa NNW 4.8 km/h 8 km/h 93% 0 mm
23:22 19.4 °C 18.2 °C 1010.7 hPa NNW 4.8 km/h 9.7 km/h 93% 0 mm
23:27 19.4 °C 18.2 °C 1011.1 hPa NNW 4.8 km/h 11.3 km/h 93% 0 mm
23:32 19.4 °C 18.2 °C 1011.1 hPa NNW 1.6 km/h 6.4 km/h 93% 0 mm
23:37 19.3 °C 18.2 °C 1011.4 hPa NNW 4.8 km/h 8 km/h 93% 0 mm
23:42 19.3 °C 18.2 °C 1011.4 hPa NNW 1.6 km/h 4.8 km/h 93% 0 mm
23:47 19.3 °C 18.1 °C 1011.4 hPa NE 3.2 km/h 3.2 km/h 93% 0 mm
23:52 19.3 °C 18.1 °C 1011.4 hPa NNE 1.6 km/h 6.4 km/h 93% 0 mm
23:57 19.2 °C 18.1 °C 1011.4 hPa NNE 1.6 km/h 1.6 km/h 93% 0 mm
Compliments of Weather Underground